Weather History for Plattsburgh, NY

Change the Weather History Date:

Thursday, August 29, 2013

  Actual Average Record
Temperature  
Mean Temperature 70 °F 65 °F  
Max Temperature 77 °F 77 °F 95 °F (1960)
Min Temperature 62 °F 54 °F 40 °F (1957)
Degree Days  
Heating Degree Days 0 2  
Month to date heating degree days 23  
Since 1 June heating degree days 119  
Since 1 July heating degree days 34  
Cooling Degree Days 5 3  
Month to date cooling degree days 84 104  
Year to date cooling degree days 371 317  
Since 1 June cooling degree days 351 309  
Growing Degree Days 20 (Base 50)    
Moisture  
Dew Point 64 °F    
Average Humidity 81    
Maximum Humidity 93    
Minimum Humidity 69    
Precipitation  
Precipitation 0.00 in - 2.15 in (1949)
Month to date precipitation 3.36  
Year to date precipitation 23.92  
Sea Level Pressure  
Sea Level Pressure 30.01 in    
Wind  
Wind Speed 5 mph (North)    
Max Wind Speed 12 mph    
Max Gust Speed 14 mph    
Visibility 10 miles    
Events      
T = Trace of Precipitation, MM = Missing Value Source: NWS Daily Summary

Daily Weather History Graph

Daily Weather History Graph

Search for Another Location

Airport:

Trip Planner

Search our weather history database for the weather conditions in past years. The results will help you decide how hot, cold, wet, or windy it might be!

Date:

Astronomy

Aug. 29, 2013 Rise Set
Actual Time 6:13 AM EDT 7:35 PM EDT
Civil Twilight 5:42 AM EDT 8:05 PM EDT
Nautical Twilight 5:06 AM EDT 8:42 PM EDT
Astronomical Twilight 4:27 AM EDT 9:20 PM EDT
Moon No Moon Rise 3:09 PM EDT (8/29)
Length of Visible Light 14h 23m
Length of Day
13h 22m
Last Quarter, 38% of the Moon is Illuminated
Aug 29
Last Quarter
Sep 5
New
Sep 12
First Quarter
Sep 19
Full
Sep 26
Last Quarter

Hourly Weather History & Observations

Time (EDT) Temp. Dew Point Humidity Pressure Visibility Wind Dir Wind Speed Gust Speed Precip Events Conditions
12:53 AM 70.0 °F 66.9 °F 90% 29.95 in 8.0 mi North 9.2 mph - N/A   Mostly Cloudy
1:53 AM 69.1 °F 64.9 °F 87% 29.95 in 10.0 mi North 5.8 mph - N/A   Mostly Cloudy
2:02 AM 68.0 °F 64.4 °F 88% 29.95 in 10.0 mi NNW 5.8 mph - N/A   Partly Cloudy
2:53 AM 66.9 °F 64.0 °F 90% 29.96 in 10.0 mi Calm Calm - N/A   Clear
3:15 AM 66.2 °F 64.4 °F 94% 29.96 in 10.0 mi Calm Calm - N/A   Mostly Cloudy
3:53 AM 66.9 °F 64.0 °F 90% 29.96 in 10.0 mi NNE 4.6 mph - N/A   Overcast
4:48 AM 66.2 °F 62.6 °F 88% 29.98 in 10.0 mi North 9.2 mph - N/A   Overcast
4:53 AM 66.0 °F 63.0 °F 90% 29.98 in 10.0 mi North 9.2 mph - N/A   Overcast
5:19 AM 66.2 °F 62.6 °F 88% 29.98 in 10.0 mi North 8.1 mph - N/A   Overcast
5:53 AM 64.9 °F 62.1 °F 90% 29.99 in 10.0 mi North 6.9 mph - N/A   Overcast
6:53 AM 64.9 °F 62.1 °F 90% 30.02 in 10.0 mi NNE 9.2 mph - N/A   Overcast
7:14 AM 64.4 °F 62.6 °F 94% 30.02 in 10.0 mi NNE 4.6 mph - N/A   Overcast
7:27 AM 64.4 °F 62.6 °F 94% 30.03 in 8.0 mi North 8.1 mph - N/A   Overcast
7:53 AM 64.9 °F 62.1 °F 90% 30.04 in 9.0 mi North 8.1 mph - N/A   Overcast
8:26 AM 64.4 °F 62.6 °F 94% 30.04 in 9.0 mi North 4.6 mph - N/A   Overcast
8:53 AM 64.9 °F 62.1 °F 90% 30.04 in 10.0 mi NNW 4.6 mph - N/A   Overcast
9:22 AM 66.2 °F 62.6 °F 88% 30.05 in 9.0 mi Calm Calm - N/A   Overcast
9:53 AM 68.0 °F 62.1 °F 81% 30.05 in 10.0 mi NNW 3.5 mph - N/A   Overcast
10:53 AM 66.9 °F 63.0 °F 87% 30.05 in 10.0 mi Calm Calm - N/A   Overcast
11:53 AM 69.1 °F 64.0 °F 84% 30.05 in 9.0 mi Calm Calm - N/A   Overcast
12:53 PM 71.1 °F 64.9 °F 81% 30.04 in 10.0 mi North 4.6 mph - N/A   Mostly Cloudy
1:08 PM 71.6 °F 64.4 °F 78% 30.04 in 10.0 mi North 4.6 mph - N/A   Mostly Cloudy
1:35 PM 73.4 °F 66.2 °F 78% 30.03 in 10.0 mi NE 8.1 mph - N/A   Scattered Clouds
1:53 PM 73.0 °F 64.9 °F 76% 30.03 in 10.0 mi NNE 6.9 mph - N/A   Partly Cloudy
2:53 PM 75.0 °F 64.9 °F 71% 30.02 in 10.0 mi Calm Calm - N/A   Clear
3:53 PM 75.9 °F 64.9 °F 69% 30.01 in 10.0 mi NE 6.9 mph - N/A   Clear
4:53 PM 75.9 °F 66.0 °F 71% 29.99 in 10.0 mi NE 6.9 mph - N/A   Clear
5:53 PM 75.0 °F 64.9 °F 71% 29.99 in 10.0 mi North 5.8 mph - N/A   Clear
6:53 PM 73.0 °F 64.0 °F 73% 30.01 in 10.0 mi NNW 8.1 mph - N/A   Clear
7:53 PM 70.0 °F 64.0 °F 81% 30.01 in 10.0 mi Calm Calm - N/A   Partly Cloudy
8:53 PM 68.0 °F 64.0 °F 87% 30.01 in 10.0 mi WNW 4.6 mph - N/A   Clear
9:53 PM 64.9 °F 63.0 °F 93% 30.01 in 8.0 mi West 4.6 mph - N/A   Clear
10:53 PM 64.9 °F 63.0 °F 93% 30.01 in 10.0 mi NW 4.6 mph - N/A   Clear
11:53 PM 64.0 °F 62.1 °F 93% 30.01 in 10.0 mi NW 5.8 mph - N/A   Clear